COSMOS 1670

Satellite information

Favourite Embed

Satellite Type and Status

PAYLOADIN ORBIT

Key statistics

Satellite COSMOS 1670 at a glance.

Uptime

14707

Days in orbit

Revolutions

≈ 13.8

Per day

Orbit

LEO

Low Earth Orbit

Inclination

64.9

Latest

Satellite identification and parameters

Extended collection of information and parameters for COSMOS 1670.

Object identification

Identified? True

Debris? False

Object name: COSMOS 1670

International designator: 1985-064A

Object number (NORAD): 15930

Object ID (CCSDS): 15930

Country: COMMONWEALTH OF INDEPENDENT STATES (CIS)

Current information (Y/N): Y

RCS size: LARGE

Orbital parameters

Period: 104.056 minutes

Inclination: 64.9416 deg

SMA: 7328.345 km

Apoapsis: 987.806 km

Periapsis: 912.614 km

RAAN: 2.8087 deg

Eccentricy: 0.0051302

Argument of periapsis: 130.8793 deg

Mean anomaly: 229.6729 deg

Mean motion: 13.83865628 rev/day

Mean motion (dot): -0.00000048 rev/day2

B* drag term: 0.000036711 1/REarth

Two-line elements (TLE)

Creation date: Nov. 4, 2025, 11:56 p.m.

Reference frame: TEME

Reference center: EARTH

Epoch: Nov. 4, 2025, 1:33 p.m. UTC

TLE line 0: 0 COSMOS 1670

TLE line 1: 1 15930U 85064A 25308.56503201 -.00000048 00000-0 36711-4 0 9996

TLE line 2: 2 15930 64.9416 2.8087 0051302 130.8793 229.6729 13.83865628 22671

Live tracking on map

Real-time ground track for satellite COSMOS 1670.

In-orbit conjunctions

A list of the most updated potential collisions computed for object COSMOS 1670.

Target Orbit TCA Probability of collision Miss distance Type
THORAD AGENA D DEB SSO 2025-11-07 15:31:09 0.0002353135 304.0 (m) DEBRIS
IRIDIUM 33 DEB LEO 2025-04-10 19:21:01 0.000354225 584.0 (m) DEBRIS
FENGYUN 1C DEB SSO 2025-01-17 04:00:49 0.0002000044 189.0 (m) DEBRIS
FENGYUN 1C DEB SSO 2024-09-28 22:54:53 0.0005093303 56.0 (m) DEBRIS

Associated space launch

Active radar satellite for ocean surveillance powered by a nuclear reactor.

COSMOS 1670 was lifted into orbit during the mission ‘Tsiklon-2 | US-A 26’, on board a Tsiklon-2 space rocket.

The launch took place on Aug. 1, 1985, 5:36 a.m. from 90.

For more information about the launch, click the button.

Launch to space Tsiklon-2 | US-A 26
Tsiklon-2 | US-A 26

Agency: N/A

Status: Launch Successful

Launch date: Aug. 1, 1985, 5:36 a.m. UTC

Rocket: Tsiklon-2

Launch pad: 90

Location: Baikonur Cosmodrome, Republic of Kazakhstan

...

Latest news about this satellite

There are no fresh news available about this satellite. Check back as we update our databases every day.


Newsletter sign-up

Weekly statistics, charts and insights to help you stay on top of the space industry.